Estación municipal de Monistrol de Calders (Moianès, P.N.de Sant Llorenç del Munt i l'Obac)

Consulta los datos en tiempo real de la estación municipal de Monistrol de Calders





Hora UTC 03:15
Temperatura 6.9 ºC
Humedad 91.0 %
Presión 1011.5 hPa
Pluja 0.0 mm
Velocidad viento 1.6 km/h
Dirección viento SE

Webcam

Datos diarios 2026-05-08



Hora UTC (invierno +1h; verano +2h)
Temperatura (ºC) Humedad (%) Presión (hPa) Velocidad viento (km/h) Precipitación (mm)
Hora UTC Aire Humedad Presión Vel. Dir. Vel. Max Dir. Intent. máx 5 min.
00:05 9.3 90.0 1012.7 1.6 S 1.6 0.0
00:10 9.2 90.0 1012.7 1.6 SSE 4.8 0.0
00:15 9.2 90.0 1012.6 1.6 SSE 6.4 0.0
00:20 9.2 90.0 1012.4 1.6 S 6.4 0.0
00:25 9.2 90.0 1012.4 3.2 SSE 4.8 0.0
00:30 9.2 90.0 1012.4 1.6 S 4.8 0.0
00:35 9.2 91.0 1012.4 0.0 S 3.2 0.0
00:40 9.2 91.0 1012.4 0.0 S 1.6 0.0
00:45 9.2 91.0 1012.4 0.0 S 1.6 0.0
00:50 9.2 91.0 1012.3 1.6 S 1.6 0.0
00:55 9.2 90.0 1012.2 3.2 SE 4.8 0.0
01:00 9.1 90.0 1012.2 3.2 SSE 4.8 0.0
01:05 9.0 90.0 1012.2 1.6 SSE 4.8 0.0
01:10 8.9 91.0 1012.2 0.0 SSE 4.8 0.0
01:15 8.9 91.0 1012.2 0.0 SSE 3.2 0.0
01:20 8.9 91.0 1012.2 1.6 SSE 3.2 0.0
01:25 8.9 90.0 1012.1 1.6 SSE 4.8 0.0
01:30 8.8 91.0 1012.1 1.6 SSE 4.8 0.0
01:35 8.8 91.0 1012.1 0.0 SSE 1.6 0.0
01:40 8.7 91.0 1012.0 1.6 SSE 3.2 0.0
01:45 8.7 91.0 1012.0 3.2 SSE 3.2 0.0
01:50 8.6 91.0 1012.0 0.0 SSE 3.2 0.0
01:55 8.6 91.0 1011.9 3.2 SE 3.2 0.0
02:00 8.4 91.0 1011.9 0.0 SSE 4.8 0.0
02:05 8.3 91.0 1011.9 0.0 SSE 3.2 0.0
02:10 8.3 91.0 1011.9 1.6 SSE 3.2 0.0
02:20 8.1 91.0 1011.9 0.0 SSE 3.2 0.0
02:25 7.9 90.0 1011.7 0.0 SSE 0.0 0.0
02:30 7.8 91.0 1011.7 1.6 SSE 4.8 0.0
02:35 7.7 91.0 1011.7 1.6 SE 4.8 0.0
02:40 7.7 91.0 1011.7 6.4 SSE 6.4 0.0
02:45 7.6 91.0 1011.7 4.8 SSE 6.4 0.0
02:50 7.5 91.0 1011.7 3.2 SSE 4.8 0.0
02:55 7.4 91.0 1011.7 1.6 SSE 4.8 0.0
03:00 7.3 91.0 1011.7 1.6 SSE 3.2 0.0
03:05 7.2 91.0 1011.7 1.6 SSE 3.2 0.0
03:10 7.0 91.0 1011.6 0.0 SE 4.8 0.0
03:15 6.9 91.0 1011.5 1.6 SE 4.8 0.0
Máxima 9.3 91.0 1012.7 6.4 SSE 6.4 0.0
Mínima 6.9 90.0 1011.5
Total 0.0